www.pogodaiklimat.ru
ПОГОДА в Буэнос-Айресе
Время
(UTC), дата
06 8.10
09 8.10
12 8.10
15 8.10
18 8.10
21 8.10
00 9.10
03 9.10
06 9.10
09 9.10
12 9.10
15 9.10
18 9.10
21 9.10
00 10.10
03 10.10
06 10.10
09 10.10
12 10.10
15 10.10
18 10.10
21 10.10
00 11.10
03 11.10
06 11.10
09 11.10
12 11.10
15 11.10
18 11.10
21 11.10
00 12.10
03 12.10
06 12.10
09 12.10
12 12.10
15 12.10
18 12.10
21 12.10
00 13.10
03 13.10
06 13.10
09 13.10
12 13.10
15 13.10
18 13.10
21 13.10
00 14.10
03 14.10
06 14.10
09 14.10
12 14.10
15 14.10
18 14.10
21 14.10
00 15.10
03 15.10
Ветер
(напр.,м/с)
Видим. Явления Облачность Т
(С)
Тd
(С)
f
(%)
Тe
(С)
Тes
(С)
Комфортность P
(гПа)
Po
(гПа)
Тmin
(С)
Tmax
(С)
R
(мм)
R24
(мм)
S
(см)
ЮЗ 1 10 км 9/0
[Ac As Cs]
+17.7 +0.5 31 +19 +19 тепло 1016.1 1015.4
З 1 10 км 5/0
[Ac As Cs]
+15.3 +3.4 45 +16 +16 тепло 1017.0 1016.4
СЗ 2 10 км 3/0
[Ac As Cs]
+19.9 +3.7 34 +21 +26 комфорт 1019.0 1018.4 +14.3 +20.9
З 3 10 км 1/0
[Cs]
+24.3 -0.5 19 +23 +36 комфорт 1018.5 1017.8
З 4 10 км ясно +26.1 -0.5 17 +24 +34 комфорт 1016.7 1016.0
З 3 10 км ясно +25.9 -0.6 18 +24 +25 комфорт 1016.1 1015.4
СЗ 3 10 км ясно +21.0 +2.4 29 +22 +22 комфорт 1017.2 1016.5 +19.6 +26.5
З 3 10 км 6/0
[Cs]
+20.3 +7.6 44 +22 +22 комфорт 1017.2 1016.5
ЮЗ 3 10 км 4/0
[Ac trans Cs]
+18.8 +8.0 49 +20 +20 тепло 1016.6 1016.0
В 2 10 км 6/0
[Ac trans Cc]
+16.0 +8.9 63 +16 +16 тепло 1017.0 1016.4
С 4 10 км 3/0
[Ac trans Cs]
+17.9 +13.0 73 +18 +22 тепло 1017.9 1017.2 +15.0 +22.2
С 4 10 км 6/0
[Ac As Cc]
+21.3 +15.7 70 +25 +34 комфорт 1016.4 1015.7
С 3 10 км 8/3 1500 м
[Cu med, cong Ac As Cs]
+23.0 +16.7 68 +28 +33 душно 1013.7 1013.0
СВ 5 7000 м слаб. ливневой дождь, в посл. час гроза 9/5 1200 м
[Cb cap Ac As Cs]
+19.3 +16.5 84 +21 +21 комфорт 1010.8 1010.1
С 5 10 км в посл. час гроза 9/4 1080 м
[Cb cap As op]
+20.9 +17.4 80 +25 +25 комфорт 1012.1 1011.4 +17.7 +23.1 5
СЗ 4 10 км зарница 9/4 1300 м
[Cb cap Ac As]
+19.0 +16.2 84 +20 +20 тепло 1012.7 1012.0
СЗ 2 10 км 9/6 1500 м
[Cb cap Ac As]
+18.2 +16.0 87 +19 +19 тепло 1011.4 1010.6
З 1 10 км 10/4 600 м
[Cb cap Ac As]
+18.3 +16.3 88 +20 +20 тепло 1011.4 1010.6
С 3 10 км {гроза} 6/0
[Cs]
+21.6 +17.1 76 +26 +30 душно 1012.3 1011.6 +17.4 +21.6 4
С 4 10 км 6/0
[Cs]
+22.8 +17.9 74 +28 +39 душно 1011.5 1010.8
З 2 8000 м слаб. дождь 9/4 750 м
[Sc Ac As]
+23.6 +17.0 66 +27 +31 жарко 1009.5 1008.8 0.0
В 4 10 км {дождь} 10/0
[Ac As Cs]
+23.1 +18.9 77 +29 +30 очень
душно
1007.2 1006.5
С 4 10 км {дождь, ливн. осадки} 9/0
[Ac As Cs]
+22.6 +18.5 78 +28 +28 душно 1006.5 1005.8 +21.3 +25.6
С 3 10 км 4/0
[Cs]
+21.0 +18.5 86 +26 +26 душно 1004.3 1003.6
З 2 9000 м дождь {гроза} 10/5 1200 м
[Cb cap Ac As]
+21.5 +17.7 79 +26 +26 душно 1002.8 1002.1
Ю 3 9000 м гроза, ливневой дождь 9/4 1500 м
[Cb cap Ac As]
+18.7 +17.6 93 +20 +20 тепло 1008.7 1008.0
СВ 6 10 км в посл. час дождь {гроза} 10/4 900 м
[Cu med, cong Ac cast Cs]
+19.3 +17.9 92 +21 +22 комфорт 1008.2 1007.4 +18.3 +22.6 20
В 1 10 км гроза, ливневой дождь 10/4 1500 м
[Cb cap Ac cast]
+19.5 +18.4 93 +23 +27 комфорт 1009.6 1008.9
СВ 2 10 км {гроза} 8/0
[Ac cast Cs]
+20.7 +18.5 87 +25 +33 комфорт 1008.2 1007.4 7
В 3 10 км 8/3 1500 м
[Cu med, cong Ac cast]
+21.0 +17.0 78 +25 +26 комфорт 1008.3 1007.6
В 6 10 км 5/0
[Ac As]
+20.0 +17.3 84 +23 +23 комфорт 1009.7 1009.0 +18.8 +21.7
ЮВ 5 10 км {гроза} 10/1 1500 м
[Cb cap Ac As]
+19.2 +17.4 89 +21 +21 комфорт 1009.7 1009.0
В 9 10 км гроза, ливневой дождь 10/6 150 м
[Cb cap As op]
+18.6 +17.5 93 +19 +19 тепло 1007.0 1006.2 14
Ю 3 8000 м гроза, ливневой дождь 10/4 450 м
[Cb cap As op]
+18.2 +17.7 97 +19 +19 тепло 1009.7 1009.0
В 10 6000 м гроза, ливневой дождь 10/6 210 м
[Cb cap Ac As]
+17.5 +16.8 96 +16 +16 по сезону 1009.6 1008.9 +16.6 +21.9 38
ЮВ 4 500 м сильн. гроза, ливневой дождь 10/10 600 м
[Cb cap]
+18.2 +16.4 89 +18 +18 по сезону 1010.5 1009.8
В 5 8000 м гроза, ливневой дождь 10/3 420 м
[Cb cap Ac As]
+18.1 +17.6 97 +18 +20 по сезону 1007.2 1006.5 26
В 5 10 км {гроза} 8/0
[Ac As Cs]
+19.9 +17.5 86 +22 +23 комфорт 1004.1 1003.4
Ю 1 10 км {гроза} 10/0
[Ac As]
+19.8 +17.4 86 +23 +23 комфорт 1006.9 1006.2 +17.2 +20.3 0.7
Ю 3 10 км 8/0
[Ac As Cs]
+18.6 +16.8 89 +20 +20 тепло 1009.1 1008.4
Ю 2 10 км 9/0
[Ac As Cs]
+18.5 +16.5 88 +20 +20 тепло 1009.1 1008.4
ЮВ 2 10 км {дождь} 9/3 450 м
[St Ac und]
+18.3 +17.3 94 +20 +20 тепло 1011.6 1010.9
Ю 2 10 км {дождь} 10/3 300 м
[St Ac As Cs]
+18.8 +16.5 86 +21 +23 комфорт 1015.4 1014.6 +17.6 +20.0 0.1
ЮВ 7 10 км 10/0
[Ac As Cs]
+17.8 +7.2 50 +17 +20 по сезону 1017.5 1016.8
ЮВ 8 10 км 9/0
[Ac cast Cs]
+18.1 +6.6 47 +17 +19 прохладно 1018.8 1018.1
ЮВ 7 10 км 8/5 1350 м
[Sc Ci]
+18.1 +7.1 49 +17 +18 по сезону 1021.1 1020.4
ЮВ 10 10 км 6/6 900 м
[Sc]
+13.5 +7.4 67 +11 +11 холодно 1024.3 1023.6 +13.3 +18.9
ЮВ 8 10 км 8/1 1050 м
[Sc Ac trans Cs]
+11.2 +2.5 55 +8 +8 очень
холодно
1026.9 1026.2
ЮВ 6 10 км 10/1 1200 м
[Sc Ac As Cs]
+10.9 +0.8 50 +8 +8 холодно 1028.5 1027.8
ЮВ 7 10 км 9/0
[Ac As Cs]
+9.1 +3.4 67 +5 +5 очень
холодно
1029.3 1028.6
ЮВ 7 10 км 10/0
[Cs]
+9.9 +2.4 60 +6 +8 очень
холодно
1030.8 1030.1 +8.8 +13.5
ЮВ 8 10 км 9/4 1080 м
[Sc diur, vesp Ac As Cs]
+12.8 +3.5 53 +10 +11 очень
холодно
1030.8 1030.1
ЮВ 10 10 км 9/8 1110 м
[Sc Ac cast Cs]
+12.4 +3.5 55 +9 +9 очень
холодно
1029.6 1028.9
В 10 10 км 8/8 1000 м
[Sc Ci]
+11.4 +4.6 63 +8 +8 очень
холодно
1029.8 1029.2
ЮВ 7 10 км 9/9 900 м
[Sc]
+10.1 +3.3 63 +7 +7 очень
холодно
1030.9 1030.2 +9.7 +12.8
ЮВ 4 10 км 10/10 720 м
[St]
+9.9 +4.3 68 +7 +7 очень
холодно
1031.6 1030.9
Местоположение метеостанции Буэнос-Айрес (Аргентина): широта -34.56 долгота -58.41 высота над уровнем моря 6 м.
В архиве по умолчанию представлена погода в Буэнос-Айресе за последнюю неделю. Архивные данные за месяц целиком и за предыдущие месяцы, начиная с января 2011 года, Вы можете получить, выбрав интересующий диапазон дат из раскрывающегося списка и нажав кнопку "Найти!".
*Определитесь, кто Вы:
Внимание! Время в таблицах - всемирное. Для получения местного времени необходимо прибавить поправку, которая равна -3 ч.
Смотрите также архив погоды в соседних городах и на ближайших метеорологических станциях:
Партнеры нашего сайта:      
Пояснения к столбцам:
  • Ветер - указаны скорость ветра в м/с - средняя за 10 мин, порывы в срок и между сроками (в фигурных скобках) и направление, откуда дует ветер: С - северный,
  • СВ - северо-восточный, В - восточный, ЮВ - юго-восточный, Ю - южный, ЮЗ - юго-западный, З - западный, СЗ - северо-западный.
  • Видимость - горизонтальная дальность видимости в метрах или километрах. При видимости от 1 до 10 км при отсутствии осадков обычно наблюдается дымка, при ухудшении видимости до 1 км и менее - туман. В сухую погоду видимость может ухудшаться дымом, пылью или мглою.
  • Явления - указаны атмосферные явления, наблюдавшиеся в срок или в последний час перед сроком; фигурными скобками обозначены явления, наблюдавшиеся между сроками (за 1-3 часа до срока); квадратными скобками обозначены град или гололедные отложения с указанием их диаметра в мм.
  • Облачность - указаны через наклонную черту общая и нижняя облачность в баллах и высота нижней границы облаков в метрах; квадратными скобками обозначены формы облаков: Ci - перистые, Cs - перисто-слоистые, Cc - перисто-кучевые, Ac - высококучевые, As - высокослоистые, Sc - слоисто-кучевые, Ns - слоисто-дождевые, Cu - кучевые, Cb - кучево-дождевые. Подробнее классификацию облаков см. в Атласе облаков (PDF).
  • T - Температура воздуха - температура, измеренная на высоте 2 м над землей.
  • Td - Температура точки росы - температура, при понижении до которой содержащийся в воздухе водяной пар достигнет насыщения.
  • f - Относительная влажность воздуха - влажноcть воздуха, измеренная на высоте 2 м над землей.
  • Te - Эффективная температура - температура, которую ощущает одетый по сезону человек в тени. Характеристика душности погоды. При расчете учитывается влияние влажности воздуха и скорости ветра на теплоощущения человека.
  • Tes - Эффективная температура на солнце - температура, которую ощущает человек, с поправкой на солнечный нагрев. Характеристика знойности погоды. Зависит от высоты солнца над горизонтом, облачности и скорости ветра. Ночью, в пасмурную погоду, а также при ветре 12 м/с и более поправка равна нулю.
  • P - Атмосферное давление - приведенное к уровню моря атмосферное давление.
  • Po - Атмосферное давление - измеренное на уровне метеостанции атмосферное давление.
  • Tmin - Минимальная температура - минимум температуры воздуха на высоте 2 м над землей.
  • Tmax - Максимальная температура - максимум температуры воздуха на высоте 2 м над землей.
  • R - Количество осадков - Количество выпавших осадков за период времени, мм. При наведении курсора мыши на число - период времени, за который выпало указанное количество осадков.
  • R24 - Количество осадков - Количество выпавших осадков за 24 часа, мм.
  • S - Снежный покров - Высота снежного покрова, см. При наведении курсора мыши на число - состояние снежного покрова и степень покрытия местности в баллах.